Temp
60 59 65 65 66 66 66 66 65 65 65 64 64 64 64 64 64 61 58 65 67 68 67 70 71 71 67 63 65 61 51 47 53 53 56 60 59 60 60 61 58 59 60 64 68
59 59 59 65 65 65 65 66 65 64 64 64 64 64 63 64 58 56 67 69 69 68 67 67 63 67 61 61 61 56 50 54 61 58 58 60 61 61 58 55 55 55 61 69 66
60 59 60 64 65 65 65 65 64 64 64 63 63 63 63 62 55 56 69 69 69 68 67 66 67 65 60 61 57 57 54 60 61 61 62 61 59 59 58 52 57 57 61 65 64
59 59 59 61 64 65 65 64 64 64 64 63 63 63 63 60 44 59 68 69 68 67 66 66 62 56 53 55 61 54 59 62 61 60 62 61 62 57 57 59 63 64 66 65 64
59 59 58 61 64 65 64 62 63 63 63 63 63 62 60 52 53 63 67 67 66 65 64 62 59 53 51 55 61 58 58 61 61 60 61 61 59 59 59 58 63 63 64 64 65
58 58 58 60 63 64 64 63 63 63 63 63 63 63 56 45 63 65 64 63 65 62 61 60 59 56 54 53 55 61 58 59 61 61 60 59 56 59 58 56 60 61 61 63 65
58 58 57 57 63 63 63 62 62 63 62 63 63 62 54 53 62 64 65 61 63 63 57 55 58 57 56 52 61 60 54 54 57 59 58 59 52 56 59 58 58 58 58 61 63
57 57 57 57 62 63 63 62 62 62 62 63 63 59 50 64 60 62 65 60 61 61 56 58 59 54 54 58 57 56 52 47 54 57 55 57 49 57 57 57 55 55 55 58 60
56 56 57 57 61 62 62 62 61 62 63 62 58 55 49 62 56 60 62 56 56 56 58 59 58 51 52 49 49 51 41 44 48 56 53 52 49 56 56 56 55 55 55 56 58
56 55 56 57 61 62 62 61 61 61 60 61 60 48 51 50 56 59 63 59 54 52 51 51 48 45 43 44 41 43 43 45 45 52 51 48 51 51 56 56 55 55 55 54 58
56 55 57 57 61 62 60 57 53 49 52 47 49 46 51 57 61 56 57 54 54 51 43 47 42 38 43 46 51 51 48 48 48 52 50 50 51 52 56 51 52 53 54 53 56
55 55 57 57 62 62 61 53 54 56 44 54 53 51 55 60 52 52 58 49 47 42 44 42 40 46 51 50 47 49 48 45 45 50 51 47 50 51 51 52 54 56 54 54 55
55 55 56 57 61 59 57 57 63 62 47 49 51 50 53 58 51 48 55 51 46 42 43 41 45 51 49 45 43 48 45 43 45 46 47 47 46 46 52 51 53 55 55 54 56
54 55 56 58 56 58 54 61 65 58 39 41 44 50 53 54 48 59 59 52 44 41 43 44 52 48 44 44 46 43 51 49 45 45 40 44 36 45 49 50 51 54 54 54 54
53 53 55 58 57 52 58 64 60 56 24 43 43 56 54 48 49 51 60 53 42 40 40 38 45 44 40 45 50 47 50 48 45 42 41 37 37 42 42 46 49 53 52 52 52
53 53 53 55 57 60 62 62 56 37 23 36 43 42 44 46 47 50 50 55 53 44 43 44 50 49 45 50 52 52 48 45 43 41 33 38 39 39 41 47 51 49 51 52 49
52 52 51 57 52 60 59 55 33 24 41 33 36 43 43 39 42 46 43 42 38 33 33 39 42 48 53 47 50 51 47 32 32 31 33 32 34 44 47 49 52 54 52 48 48
52 52 51 57 60 58 56 42 20 32 36 40 40 43 38 42 40 42 42 39 44 42 36 32 32 45 50 49 43 45 46 31 27 26 28 33 32 42 45 47 48 52 50 48 47
51 46 51 55 57 57 46 31 32 38 40 37 40 37 34 41 40 40 41 41 44 46 39 38 38 45 48 49 51 44 43 44 32 18 27 31 37 46 43 42 43 45 48 46 45
42 41 47 55 56 51 41 35 37 44 43 45 34 39 34 38 35 38 39 46 45 50 53 46 36 42 46 47 48 46 50 38 35 24 22 28 30 38 40 44 43 43 46 43 44
40 38 45 52 54 44 34 37 42 46 48 43 37 37 39 38 37 38 39 43 50 49 54 47 43 36 43 42 42 42 40 40 41 34 27 22 31 42 47 49 45 46 45 43 43
35 32 44 48 40 39 37 40 47 44 46 45 44 41 42 42 36 37 37 42 54 51 46 46 40 33 37 43 43 41 44 44 37 32 31 30 35 43 44 46 46 43 45 44 44
32 33 43 43 32 33 42 43 47 44 44 44 42 45 46 44 36 39 41 50 53 50 47 46 36 28 33 40 40 40 43 44 41 35 31 29 34 43 41 42 45 46 44 44 43
34 31 34 40 40 39 37 40 39 46 45 45 44 47 45 42 42 39 40 43 48 53 49 51 39 38 34 37 40 36 40 41 43 33 32 33 39 41 42 42 42 44 45 44 45
34 31 32 31 34 39 42 42 38 38 43 45 41 47 45 37 38 40 40 42 45 47 48 48 35 39 45 45 45 41 45 41 43 48 42 45 42 50 47 44 45 44 43 43 43
33 31 33 32 37 39 42 38 38 38 41 38 40 43 47 39 43 36 40 40 41 42 49 45 33 39 34 39 42 40 43 42 44 41 42 39 39 47 44 45 43 45 45 45 44
37 36 33 32 36 37 37 40 39 41 41 44 44 43 41 43 46 52 50 47 45 45 45 41 34 30 27 34 37 31 37 42 45 41 46 39 50 45 42 45 45 44 46 46 47
MSLP
1008.92 1009.42 1009.33 1009.62 1010.03 1010.40 1010.88 1011.37 1012.00 1012.67 1013.33 1014.35 1015.02 1015.35 1015.77 1016.19 1016.54 1016.65 1016.45 1016.38 1016.52 1016.21 1016.10 1015.36 1015.34 1015.08 1015.73 1016.03 1015.71 1015.84 1016.70 1017.08 1016.74 1016.78 1016.19 1016.04 1016.10 1016.37 1016.53 1017.04 1017.59 1017.95 1018.23 1018.52 1019.64
1008.31 1008.84 1009.36 1009.00 1009.50 1009.89 1010.41 1010.89 1011.52 1012.25 1013.15 1014.02 1014.59 1014.96 1015.49 1015.89 1016.12 1015.94 1016.11 1015.93 1016.06 1016.17 1016.00 1015.28 1015.77 1015.90 1016.43 1016.28 1015.85 1015.93 1016.47 1016.24 1015.72 1015.75 1015.68 1015.86 1015.74 1016.29 1016.89 1017.37 1017.96 1018.23 1018.19 1018.73 1019.76
1007.90 1008.40 1008.66 1008.60 1009.04 1009.46 1009.91 1010.44 1011.16 1011.94 1012.95 1013.77 1014.39 1014.97 1015.47 1015.86 1016.57 1015.65 1015.43 1015.44 1016.15 1016.26 1016.13 1015.54 1015.68 1016.21 1016.89 1016.43 1016.11 1015.92 1015.89 1015.61 1015.24 1015.15 1015.33 1015.53 1016.03 1016.26 1016.89 1017.64 1017.70 1018.09 1018.60 1019.11 1019.95
1007.94 1007.84 1008.11 1008.46 1008.48 1009.01 1009.36 1010.04 1010.89 1011.68 1012.89 1013.59 1014.32 1014.90 1015.31 1015.74 1015.55 1014.24 1014.77 1015.40 1016.05 1016.19 1016.04 1015.56 1015.68 1016.88 1017.69 1017.20 1016.42 1016.06 1015.39 1015.19 1014.97 1014.95 1015.30 1015.35 1015.79 1016.47 1016.64 1016.67 1016.79 1017.72 1018.10 1018.97 1019.69
1006.87 1007.65 1008.06 1007.69 1007.97 1008.49 1009.01 1009.55 1010.59 1011.56 1012.65 1013.45 1014.28 1014.89 1015.21 1015.56 1014.96 1014.06 1014.75 1015.30 1016.08 1016.51 1016.25 1015.91 1016.55 1017.76 1018.50 1018.01 1017.06 1016.12 1015.55 1015.33 1015.04 1015.01 1015.27 1015.50 1015.72 1016.32 1016.65 1016.69 1017.20 1018.30 1018.85 1019.22 1019.63
1007.28 1007.14 1006.99 1007.33 1007.40 1008.19 1008.78 1009.73 1010.47 1011.23 1012.29 1013.35 1014.18 1014.89 1015.27 1015.14 1014.38 1014.53 1014.90 1015.74 1016.07 1017.03 1016.95 1017.04 1017.59 1018.35 1019.39 1018.90 1017.94 1015.83 1015.67 1015.55 1015.18 1015.37 1015.51 1015.73 1016.12 1016.35 1016.86 1017.13 1017.96 1018.57 1019.08 1019.30 1019.42
1006.69 1006.94 1007.02 1007.20 1007.23 1007.91 1008.60 1009.38 1009.84 1011.02 1011.90 1013.42 1014.09 1014.77 1014.79 1014.38 1014.33 1014.65 1015.04 1015.98 1016.18 1016.62 1017.74 1018.47 1018.51 1018.79 1018.94 1018.86 1017.33 1016.34 1016.17 1016.08 1015.72 1015.48 1015.65 1015.80 1016.55 1016.64 1016.76 1017.58 1018.36 1019.03 1019.23 1019.45 1019.51
1006.79 1006.42 1006.56 1007.09 1007.15 1007.71 1008.37 1009.22 1010.06 1011.20 1012.08 1013.29 1014.27 1014.64 1014.32 1013.82 1014.22 1014.89 1015.02 1016.20 1016.61 1016.85 1018.32 1019.25 1019.08 1019.49 1019.36 1018.68 1017.55 1016.81 1016.47 1016.59 1016.19 1015.69 1015.94 1015.94 1016.62 1016.65 1017.01 1017.78 1018.74 1019.28 1019.47 1019.65 1019.56
1006.49 1006.25 1006.49 1006.99 1007.17 1007.64 1008.01 1008.99 1010.07 1011.10 1012.16 1013.29 1014.40 1014.61 1014.39 1014.26 1014.84 1015.15 1015.45 1015.95 1017.40 1018.37 1019.38 1019.55 1019.78 1020.30 1019.94 1019.79 1018.48 1017.06 1016.67 1016.58 1016.54 1016.22 1016.16 1016.38 1016.74 1016.71 1017.19 1017.90 1018.75 1019.18 1019.49 1019.65 1019.54
1006.20 1005.77 1006.31 1006.74 1006.76 1007.22 1007.94 1008.72 1010.15 1010.93 1012.48 1013.60 1014.11 1014.88 1014.48 1014.04 1014.51 1015.22 1015.82 1016.47 1017.34 1018.68 1019.85 1020.21 1020.72 1020.53 1020.16 1020.20 1017.76 1016.78 1016.75 1016.64 1016.37 1016.56 1016.46 1016.79 1016.69 1016.90 1017.29 1018.03 1018.57 1018.92 1019.23 1019.51 1019.24
1005.34 1005.77 1005.59 1006.17 1006.21 1006.80 1007.78 1009.08 1009.56 1009.16 1011.40 1011.64 1012.58 1013.26 1012.91 1013.38 1014.11 1015.19 1015.83 1016.49 1017.18 1018.32 1018.96 1019.72 1019.87 1019.07 1018.66 1019.30 1018.20 1017.05 1016.74 1016.77 1016.58 1016.30 1016.44 1016.78 1016.88 1016.80 1017.18 1018.01 1018.42 1018.84 1018.88 1018.90 1018.77
1005.44 1005.29 1005.07 1005.68 1005.77 1006.53 1007.05 1007.13 1007.87 1008.07 1010.07 1011.70 1011.99 1012.70 1012.55 1012.60 1013.84 1015.15 1015.59 1015.88 1016.84 1017.73 1018.64 1019.65 1018.12 1018.10 1018.69 1018.99 1018.37 1017.48 1016.91 1016.99 1017.17 1016.81 1016.72 1017.18 1017.26 1017.07 1017.24 1017.35 1017.44 1017.96 1018.30 1018.24 1018.24
1005.66 1005.29 1004.52 1004.99 1005.54 1006.46 1006.49 1006.82 1007.28 1007.75 1009.96 1012.01 1012.20 1012.49 1012.27 1012.73 1013.60 1014.37 1015.09 1015.75 1016.60 1017.57 1018.07 1017.48 1017.31 1018.49 1018.56 1018.95 1018.76 1017.51 1017.01 1016.94 1017.06 1017.23 1017.34 1017.49 1017.86 1017.42 1017.01 1017.14 1017.19 1017.37 1017.53 1017.81 1017.79
1004.76 1004.47 1003.46 1004.53 1005.80 1005.72 1006.25 1006.62 1007.15 1007.33 1010.17 1012.24 1012.31 1012.09 1012.23 1012.55 1013.57 1014.09 1014.78 1015.10 1016.85 1017.60 1018.26 1018.13 1017.68 1017.55 1018.44 1018.76 1018.69 1017.55 1016.55 1016.70 1017.15 1017.51 1017.88 1017.80 1017.76 1017.14 1016.91 1016.89 1017.04 1017.17 1017.32 1017.47 1017.72
1004.19 1003.80 1003.37 1003.85 1003.59 1004.67 1005.51 1006.33 1007.14 1008.02 1010.23 1011.58 1011.82 1011.11 1011.72 1012.36 1012.67 1013.78 1014.16 1014.87 1015.88 1016.83 1018.27 1018.17 1017.07 1017.03 1017.68 1016.66 1017.41 1016.77 1016.10 1016.64 1017.41 1017.88 1018.20 1018.53 1018.24 1016.69 1016.75 1016.91 1016.77 1016.88 1017.20 1017.48 1017.73
1004.22 1003.89 1003.64 1003.18 1004.06 1004.93 1005.45 1006.27 1007.37 1009.37 1009.88 1010.40 1010.25 1010.81 1011.79 1011.89 1012.31 1013.02 1013.95 1014.36 1015.15 1017.02 1018.09 1017.71 1017.16 1017.41 1017.01 1017.23 1017.01 1016.47 1016.24 1017.15 1017.97 1018.56 1018.99 1017.96 1018.00 1016.76 1016.42 1015.59 1015.70 1016.32 1016.99 1017.46 1018.12
1003.77 1003.47 1003.43 1002.31 1002.75 1004.10 1005.51 1006.43 1008.66 1008.99 1008.96 1010.16 1010.19 1010.60 1011.39 1011.84 1012.39 1012.71 1013.59 1013.94 1013.86 1016.51 1017.59 1017.90 1017.16 1016.26 1015.89 1016.61 1016.43 1016.15 1015.92 1017.87 1019.12 1019.35 1018.25 1018.37 1018.38 1016.19 1015.11 1014.91 1015.01 1015.31 1016.52 1017.56 1018.06
1003.24 1003.32 1002.65 1001.84 1002.49 1003.88 1004.98 1007.09 1007.66 1007.11 1008.03 1009.09 1009.30 1010.76 1011.25 1011.67 1012.52 1013.08 1013.68 1013.74 1013.82 1014.68 1015.83 1016.36 1016.34 1014.60 1014.65 1015.40 1015.18 1015.10 1014.96 1015.95 1017.64 1019.09 1018.80 1018.94 1017.75 1015.40 1014.91 1014.89 1015.10 1015.31 1016.22 1017.67 1018.59
1002.62 1002.45 1001.96 1001.70 1002.18 1003.42 1004.97 1005.75 1004.49 1005.48 1006.59 1007.65 1009.61 1010.40 1010.76 1011.15 1011.74 1012.54 1012.53 1011.85 1012.71 1013.24 1013.00 1014.01 1014.02 1014.00 1014.05 1014.35 1014.36 1014.68 1014.68 1015.08 1017.30 1019.84 1019.30 1018.30 1016.96 1015.14 1015.05 1015.18 1015.69 1016.09 1016.84 1017.70 1018.73
1003.21 1003.12 1002.18 1001.35 1002.18 1003.38 1004.20 1003.48 1003.99 1004.19 1005.19 1006.53 1007.41 1008.00 1008.56 1009.78 1010.55 1010.72 1011.36 1010.73 1011.55 1011.94 1011.58 1011.98 1013.65 1014.12 1013.78 1013.99 1013.79 1013.42 1014.00 1014.98 1016.54 1018.60 1018.97 1018.03 1016.79 1015.38 1015.35 1015.49 1016.05 1016.67 1017.02 1017.72 1018.54
1003.10 1002.97 1002.08 1001.52 1002.03 1003.08 1002.17 1002.91 1003.28 1003.24 1003.59 1004.82 1005.73 1006.44 1007.07 1008.13 1009.19 1009.83 1009.80 1009.21 1010.24 1010.90 1011.03 1011.47 1012.36 1014.58 1014.11 1014.06 1013.60 1013.73 1013.39 1014.37 1015.39 1016.79 1017.23 1017.50 1015.77 1013.83 1014.00 1014.03 1014.85 1015.80 1016.97 1017.74 1018.35
1004.11 1003.45 1002.06 1001.14 1001.47 1002.28 1002.34 1002.58 1002.66 1003.30 1003.20 1003.94 1004.72 1005.32 1005.96 1007.42 1008.55 1009.25 1009.32 1008.82 1009.10 1009.94 1010.88 1011.41 1012.06 1014.00 1014.15 1013.99 1013.60 1013.22 1013.09 1013.70 1014.85 1016.39 1016.64 1016.10 1014.37 1013.05 1013.52 1014.08 1014.70 1015.69 1016.70 1017.76 1018.39
1003.98 1003.60 1001.56 1002.10 1000.84 1001.97 1002.60 1002.57 1002.58 1002.85 1002.93 1003.65 1004.20 1004.51 1005.22 1006.60 1008.35 1008.60 1008.75 1008.84 1008.77 1009.49 1009.92 1010.95 1012.19 1013.91 1014.26 1014.14 1013.65 1013.41 1013.30 1013.11 1013.88 1014.69 1015.27 1015.51 1014.01 1013.28 1013.59 1013.88 1014.31 1015.28 1016.58 1017.50 1018.46
1004.48 1004.32 1003.33 1001.69 1001.27 1000.97 1001.56 1002.40 1002.41 1002.59 1002.93 1003.25 1003.55 1004.10 1005.25 1006.46 1006.98 1008.28 1008.65 1008.85 1008.69 1009.14 1009.50 1010.41 1011.69 1011.82 1012.00 1011.97 1012.88 1013.26 1012.96 1013.06 1013.32 1014.18 1014.20 1013.74 1013.33 1013.05 1013.33 1013.80 1014.48 1014.94 1016.06 1017.16 1018.05
1004.49 1004.58 1003.72 1002.23 1001.53 1001.24 1001.84 1002.32 1002.32 1002.47 1002.64 1002.95 1003.59 1003.44 1004.35 1005.88 1006.96 1007.60 1008.23 1008.91 1008.93 1008.99 1009.84 1010.27 1011.60 1012.08 1011.80 1012.03 1011.99 1011.83 1012.01 1012.36 1012.54 1012.16 1013.03 1012.48 1013.02 1012.11 1012.26 1012.94 1013.87 1014.61 1015.77 1016.76 1017.67
1004.99 1005.03 1004.25 1003.10 1001.59 1001.48 1001.62 1001.92 1001.89 1002.44 1002.79 1003.04 1003.13 1003.67 1003.83 1004.29 1004.65 1006.21 1006.88 1007.66 1008.46 1009.45 1009.70 1010.44 1011.39 1011.98 1012.51 1012.09 1011.76 1012.26 1011.93 1011.86 1011.66 1011.81 1011.86 1011.85 1012.12 1011.49 1011.46 1012.66 1013.90 1014.21 1014.96 1015.77 1016.65
1004.67 1004.73 1004.74 1003.08 1001.49 1001.19 1000.79 1000.97 1001.72 1002.36 1003.55 1003.33 1003.48 1003.95 1004.58 1004.58 1004.94 1005.06 1006.33 1007.20 1007.88 1008.83 1009.76 1010.80 1011.85 1012.78 1013.78 1013.37 1013.01 1012.91 1011.32 1011.11 1011.04 1011.11 1010.80 1010.98 1010.35 1010.87 1011.63 1012.43 1012.85 1013.56 1014.12 1014.54 1015.14
Wind_Speed
12 12 19 24 23 21 20 20 24 25 23 22 19 17 14 10 8 4 7 3 2 9 13 3 1 7 3 2 3 3 4 3 6 7 5 4 5 1 1 7 3 0 8 11 13
10 11 16 24 23 22 22 22 27 26 23 22 19 17 14 10 2 5 4 8 3 9 4 6 4 7 2 3 2 4 4 8 6 5 7 6 6 7 4 3 4 4 4 20 15
14 11 17 20 23 22 21 25 26 24 23 21 21 16 13 9 5 8 12 11 2 7 4 2 4 6 2 3 2 4 6 5 3 5 6 10 6 3 10 2 6 11 18 18 15
14 15 14 18 23 23 22 27 26 23 23 22 20 15 12 3 8 2 18 14 3 7 4 7 3 7 3 6 4 2 3 4 2 4 6 11 9 5 4 7 11 15 22 18 16
8 14 13 18 22 22 24 22 25 24 23 24 21 15 7 4 6 1 19 13 4 4 2 5 10 7 7 8 7 4 4 4 4 3 5 5 6 7 6 3 12 10 14 17 16
6 7 15 15 21 23 25 25 27 27 25 23 22 16 5 9 4 8 14 10 6 4 2 6 5 6 8 6 8 7 4 3 5 5 3 6 3 5 4 7 12 14 13 14 17
6 8 13 16 21 23 26 24 25 23 27 25 21 6 2 7 5 12 13 6 3 7 7 5 7 3 2 5 6 5 6 2 2 6 4 7 2 6 6 10 15 11 9 11 12
8 5 8 15 22 24 28 28 25 24 26 25 19 3 4 3 7 9 13 10 14 12 9 4 6 6 1 6 6 4 4 5 4 7 2 5 8 6 8 14 12 10 8 10 10
7 6 10 16 24 25 27 28 26 26 25 23 9 3 4 13 8 8 11 15 14 13 7 9 2 3 4 3 5 4 6 4 3 5 4 2 4 4 7 9 11 9 9 9 8
8 7 15 17 23 25 26 27 25 29 18 9 5 3 3 9 8 12 8 16 9 16 9 6 3 4 3 4 12 7 5 3 7 8 4 3 4 4 8 8 11 9 9 9 10
8 10 14 18 25 27 25 14 11 9 9 6 12 3 8 10 15 9 11 12 11 8 8 7 7 18 28 13 11 5 4 5 2 5 5 9 5 9 8 5 8 9 9 10 11
9 14 14 17 28 29 20 10 12 7 13 5 15 1 5 13 13 14 12 7 10 12 10 6 18 22 19 3 14 6 7 4 2 1 4 5 9 5 6 8 10 12 10 11 7
10 13 15 21 30 22 18 10 16 15 7 3 4 4 7 9 6 14 11 10 10 14 17 17 5 17 10 5 10 10 5 6 7 3 3 6 7 4 7 5 5 7 7 7 13
12 10 14 24 24 19 15 14 18 4 6 6 6 5 6 10 6 13 14 7 4 10 10 6 9 23 12 14 10 13 8 7 10 7 5 4 6 7 8 10 7 9 9 9 10
12 12 13 25 14 17 15 18 10 4 6 12 6 6 8 8 14 13 11 2 12 11 7 6 11 22 21 26 16 10 7 11 7 4 6 3 2 8 3 8 10 12 9 8 8
10 13 11 17 11 18 14 16 5 5 9 10 10 11 13 6 5 16 13 4 12 7 7 6 5 12 13 18 15 5 6 7 5 4 3 7 8 7 7 10 9 5 9 9 8
11 14 9 11 16 18 15 13 6 7 11 9 9 16 19 6 6 20 18 21 10 9 8 6 10 6 12 14 5 9 9 3 1 2 9 1 3 10 5 6 7 17 13 9 9
14 13 7 14 18 19 14 13 6 7 15 5 10 18 11 10 4 7 19 15 14 8 12 10 10 14 9 13 9 12 11 7 8 7 4 4 8 8 4 5 8 6 11 9 8
10 3 2 14 18 14 18 18 13 17 10 12 14 21 6 10 10 9 17 18 18 20 12 16 9 4 4 4 11 9 10 6 9 3 5 5 7 8 2 1 3 8 13 11 9
2 2 2 20 19 11 18 10 5 9 16 23 10 12 18 25 8 14 18 19 16 22 15 7 5 2 4 2 3 8 9 3 2 6 4 4 4 6 6 9 7 9 13 9 8
3 1 2 10 15 12 22 11 5 7 18 10 7 11 12 20 10 16 17 6 23 18 18 4 6 3 4 5 7 3 4 3 6 5 7 3 8 10 15 17 20 14 8 10 10
1 1 2 9 14 7 17 9 5 14 4 6 6 4 15 22 6 10 13 7 21 9 14 1 5 6 6 3 1 2 7 7 6 5 1 3 7 2 6 8 8 10 12 9 10
1 2 4 7 11 11 13 6 2 12 7 7 6 5 11 16 8 6 9 16 17 11 13 6 1 4 4 3 1 4 4 4 5 4 8 7 7 1 3 5 10 14 10 11 10
1 1 3 1 0 17 22 16 4 5 5 4 6 7 12 11 2 10 6 1 4 17 7 11 4 7 14 9 7 5 4 4 6 5 5 7 4 5 6 7 8 10 12 13 13
2 1 3 5 6 12 21 17 6 7 3 7 2 16 14 8 5 7 5 4 3 8 8 6 6 5 13 9 14 7 18 13 12 16 13 13 11 12 10 11 12 9 12 14 14
1 1 2 3 7 20 25 18 8 5 7 3 9 9 17 11 12 10 9 6 7 2 17 3 5 5 1 2 10 11 12 10 14 3 9 5 8 8 2 7 9 13 15 16 16
1 1 2 2 9 18 18 26 8 11 5 4 11 7 5 7 5 12 6 8 9 11 15 8 6 4 4 2 4 2 12 17 19 8 16 10 15 6 4 8 11 12 16 19 20
Wind_Direction
263 303 220 205 202 199 195 190 179 169 167 164 171 167 168 165 155 151 207 195 232 341 318 237 180 42 56 287 241 113 73 173 201 152 225 201 127 139 6 110 78 48 153 167 140
226 258 277 206 204 199 191 186 177 168 164 163 162 157 156 158 143 207 171 140 28 340 287 158 161 96 47 290 285 115 139 209 189 195 189 167 127 147 103 101 30 53 72 148 134
211 239 240 225 202 196 194 184 169 163 162 166 160 157 155 148 132 228 167 158 133 316 305 149 161 85 49 31 266 173 199 199 219 198 193 148 128 140 124 235 200 156 144 158 148
205 231 241 273 199 192 182 178 163 158 160 160 160 158 156 187 179 211 153 146 132 311 277 133 36 85 59 339 268 199 232 185 252 122 145 161 132 124 172 216 159 160 156 161 162
223 212 240 249 194 186 173 164 159 157 158 162 161 153 142 197 252 260 138 130 113 352 317 114 119 105 176 314 286 225 217 149 139 107 142 122 140 171 213 92 130 141 159 171 177
293 242 227 256 190 182 171 166 164 158 154 155 157 154 175 197 159 150 130 136 144 119 55 39 111 109 155 257 269 207 190 180 164 128 142 138 143 142 224 115 139 156 176 180 180
305 215 208 294 190 182 170 166 158 158 151 153 158 174 161 197 157 161 163 109 89 136 94 46 111 114 64 320 276 215 116 4 208 166 159 136 101 203 162 148 155 173 182 185 190
300 244 226 278 192 181 174 166 157 157 155 153 159 151 215 121 115 146 131 93 57 47 80 94 46 66 136 289 276 177 89 150 243 152 213 117 229 221 164 147 171 180 186 195 201
316 254 239 249 193 176 175 161 154 149 149 150 152 213 206 126 127 145 135 129 99 74 75 92 85 55 16 261 279 213 174 160 164 199 129 165 205 220 169 160 179 189 191 204 202
317 321 242 231 195 174 170 151 155 141 140 136 125 108 220 172 136 151 140 134 117 116 95 130 106 155 35 233 211 174 155 148 162 203 134 196 231 172 178 175 193 198 198 204 205
318 275 259 224 187 171 149 148 170 148 143 172 156 236 149 142 125 151 118 113 113 144 149 170 154 187 187 206 261 174 133 143 223 191 121 197 203 204 186 191 200 213 209 208 213
311 282 261 237 179 164 154 185 138 126 124 76 162 286 133 147 145 146 146 120 152 155 126 135 211 190 181 286 287 267 168 177 12 79 140 167 232 216 196 217 197 203 211 210 196
314 277 267 221 168 156 169 155 133 130 104 180 143 188 144 137 141 160 156 122 146 157 181 179 202 177 187 254 284 244 191 177 158 127 30 114 294 213 240 238 217 230 218 204 199
320 294 267 191 164 162 171 151 149 118 85 155 175 213 153 143 169 159 151 129 129 162 171 231 168 177 167 217 222 251 189 172 144 131 184 162 246 233 214 219 211 220 209 205 193
320 321 253 192 152 171 150 156 129 67 148 158 180 161 163 169 145 186 169 167 146 143 154 183 195 171 186 205 203 248 148 158 159 123 121 230 118 263 138 226 220 219 209 203 192
313 314 326 191 156 160 156 144 82 109 221 180 153 165 161 182 201 148 164 205 150 131 233 231 186 183 199 218 226 221 102 59 60 106 229 204 155 255 192 201 210 195 196 189 172
317 305 317 186 167 146 149 139 112 185 149 176 177 167 175 150 128 165 177 197 148 144 178 220 210 219 174 215 167 194 155 113 196 209 207 60 166 235 235 237 208 189 187 179 165
314 297 282 176 161 151 149 156 139 150 176 139 140 149 170 139 125 163 169 190 187 224 149 176 199 179 167 198 193 205 190 159 178 198 175 132 228 241 224 301 272 194 155 152 168
325 312 243 178 170 160 161 181 189 169 154 126 120 155 136 184 142 156 193 190 183 202 171 187 208 132 151 162 178 200 200 160 99 6 79 207 277 304 206 351 144 149 155 169 173
64 321 274 155 164 165 174 173 149 142 127 146 157 182 174 179 147 176 180 194 190 204 223 192 134 6 104 167 211 189 163 114 35 142 219 265 271 227 224 219 186 182 186 166 152
33 31 151 215 161 166 186 181 126 144 138 152 157 162 169 178 161 183 189 210 189 196 221 181 131 283 66 205 178 159 177 77 114 143 163 152 253 209 208 198 191 190 176 168 162
63 203 48 260 165 183 182 166 112 154 155 175 117 103 170 172 144 169 195 186 183 170 190 176 99 145 189 242 236 314 190 156 171 212 115 149 274 172 224 201 166 167 173 173 165
72 292 334 250 156 173 164 213 152 163 162 159 133 168 151 167 160 163 182 209 192 176 165 179 81 95 68 330 5 211 224 160 109 87 194 149 255 154 254 226 190 172 165 161 153
115 249 289 231 6 164 164 184 159 157 152 138 129 114 126 167 94 191 140 199 180 188 158 131 171 178 205 207 128 192 198 188 164 184 160 216 223 235 214 204 177 169 165 161 170
45 287 303 185 189 169 169 167 156 147 165 168 107 164 155 143 112 153 136 135 64 158 145 131 193 193 218 192 190 190 198 190 196 213 195 218 201 237 203 195 193 161 156 168 181
146 260 310 293 194 157 176 192 169 128 142 171 137 155 169 155 182 159 128 150 167 156 191 171 215 147 50 337 182 206 208 193 225 205 247 139 237 230 113 118 168 184 173 182 188
197 151 256 291 186 159 190 185 166 129 12 116 138 109 111 172 116 190 108 91 145 160 183 157 124 98 235 2 106 348 204 197 215 197 208 192 219 153 181 200 189 175 186 193 192